• In Deutschland
  • Länderverzeichnis
  • Für 7 Tage
  • Wassertemperatur
  • Satellitenkarten
  • Wetterkarte
  • Widgets
  • user-avatar
    Anmelden

    Stündliche Wetter La Rioja

    Heute, 17 November, Freitag

    Zeit Temperatur Niederschläge Wind Luftdruck Luftfeuchtigkeit
    00:00 +24°C° 0 mm 2 m/S 710 mmHg 35%
    01:00 +23°C° 0 mm 2 m/S 710 mmHg 36%
    02:00 +22°C° 0 mm 1 m/S 709 mmHg 43%
    03:00 +22°C° 0 mm 1 m/S 709 mmHg 44%
    04:00 +21°C° 0 mm 1 m/S 709 mmHg 45%
    05:00 +21°C° 0 mm 1 m/S 709 mmHg 46%
    06:00 +21°C° 0 mm 2 m/S 709 mmHg 42%
    07:00 +24°C° 0 mm 2 m/S 709 mmHg 37%
    08:00 +26°C° 0 mm 2 m/S 709 mmHg 33%
    09:00 +28°C° 0 mm 3 m/S 709 mmHg 29%
    10:00 +29°C° 0 mm 4 m/S 709 mmHg 25%
    11:00 +32°C° 0 mm 5 m/S 709 mmHg 21%
    12:00 +33°C° 0 mm 5 m/S 709 mmHg 20%
    13:00 +34°C° 0 mm 6 m/S 709 mmHg 18%
    14:00 +35°C° 0 mm 6 m/S 709 mmHg 16%
    15:00 +35°C° 0 mm 6 m/S 708 mmHg 17%
    16:00 +34°C° 0 mm 6 m/S 708 mmHg 18%
    17:00 +34°C° 0 mm 5 m/S 708 mmHg 18%
    18:00 +33°C° 0 mm 4 m/S 709 mmHg 21%
    19:00 +30°C° 0 mm 4 m/S 709 mmHg 23%
    20:00 +29°C° 0 mm 3 m/S 710 mmHg 26%
    21:00 +28°C° 0 mm 3 m/S 711 mmHg 28%
    22:00 +27°C° 0 mm 3 m/S 712 mmHg 31%
    23:00 +26°C° 0 mm 4 m/S 713 mmHg 33%

    Morgen, 18 November, Samstag

    Zeit Temperatur Niederschläge Wind Luftdruck Luftfeuchtigkeit
    00:00 +25°C° 0 mm 4 m/S 714 mmHg 36%
    01:00 +23°C° 0 mm 4 m/S 714 mmHg 38%
    02:00 +22°C° 0 mm 4 m/S 714 mmHg 40%
    03:00 +21°C° 0 mm 4 m/S 715 mmHg 39%
    04:00 +20°C° 0 mm 3 m/S 715 mmHg 38%
    05:00 +19°C° 0 mm 3 m/S 715 mmHg 37%
    06:00 +20°C° 0 mm 3 m/S 715 mmHg 34%
    07:00 +21°C° 0 mm 3 m/S 716 mmHg 31%
    08:00 +21°C° 0 mm 3 m/S 716 mmHg 29%
    09:00 +22°C° 0 mm 3 m/S 716 mmHg 27%
    10:00 +25°C° 0 mm 3 m/S 716 mmHg 25%
    11:00 +26°C° 0 mm 3 m/S 716 mmHg 22%
    12:00 +27°C° 0 mm 4 m/S 715 mmHg 21%
    13:00 +28°C° 0 mm 4 m/S 714 mmHg 19%
    14:00 +29°C° 0 mm 4 m/S 714 mmHg 18%
    15:00 +29°C° 0 mm 4 m/S 713 mmHg 17%
    16:00 +29°C° 0 mm 3 m/S 712 mmHg 17%
    17:00 +29°C° 0 mm 3 m/S 712 mmHg 16%
    18:00 +28°C° 0 mm 3 m/S 712 mmHg 17%
    19:00 +27°C° 0 mm 2 m/S 712 mmHg 19%
    20:00 +26°C° 0 mm 2 m/S 713 mmHg 20%
    21:00 +25°C° 0 mm 2 m/S 713 mmHg 22%
    22:00 +24°C° 0 mm 2 m/S 713 mmHg 24%
    23:00 +24°C° 0 mm 2 m/S 714 mmHg 26%

    übermorgen, 19 November, Sonntag

    Zeit Temperatur Niederschläge Wind Luftdruck Luftfeuchtigkeit
    00:00 +23°C° 0 mm 2 m/S 713 mmHg 27%
    01:00 +23°C° 0 mm 2 m/S 713 mmHg 28%
    02:00 +21°C° 0 mm 2 m/S 712 mmHg 28%
    03:00 +21°C° 0 mm 2 m/S 712 mmHg 28%
    04:00 +21°C° 0 mm 1 m/S 712 mmHg 29%
    05:00 +21°C° 0 mm 1 m/S 711 mmHg 29%
    06:00 +23°C° 0 mm 1 m/S 712 mmHg 25%
    07:00 +25°C° 0 mm 1 m/S 712 mmHg 21%
    08:00 +27°C° 0 mm 1 m/S 713 mmHg 17%
    09:00 +28°C° 0 mm 1 m/S 713 mmHg 15%
    10:00 +30°C° 0 mm 2 m/S 713 mmHg 14%
    11:00 +31°C° 0 mm 2 m/S 713 mmHg 13%
    12:00 +32°C° 0 mm 2 m/S 712 mmHg 12%
    13:00 +34°C° 0 mm 3 m/S 711 mmHg 11%
    14:00 +35°C° 0 mm 3 m/S 710 mmHg 10%
    15:00 +35°C° 0 mm 3 m/S 710 mmHg 10%
    16:00 +35°C° 0 mm 3 m/S 709 mmHg 10%
    17:00 +35°C° 0 mm 3 m/S 708 mmHg 10%
    18:00 +34°C° 0 mm 3 m/S 708 mmHg 11%
    19:00 +31°C° 0 mm 3 m/S 709 mmHg 13%
    20:00 +29°C° 0 mm 2 m/S 709 mmHg 14%
    21:00 +28°C° 0 mm 2 m/S 709 mmHg 16%
    22:00 +28°C° 0 mm 2 m/S 710 mmHg 17%
    23:00 +27°C° 0 mm 2 m/S 710 mmHg 18%

    20 November, Montag

    Zeit Temperatur Niederschläge Wind Luftdruck Luftfeuchtigkeit
    00:00 +26°C° 0 mm 2 m/S 709 mmHg 19%
    01:00 +25°C° 0 mm 2 m/S 709 mmHg 20%
    02:00 +25°C° 0 mm 1 m/S 709 mmHg 21%
    03:00 +24°C° 0 mm 1 m/S 709 mmHg 22%
    04:00 +24°C° 0 mm 1 m/S 709 mmHg 23%
    05:00 +23°C° 0 mm 1 m/S 709 mmHg 25%
    06:00 +25°C° 0 mm 2 m/S 709 mmHg 23%
    07:00 +27°C° 0 mm 2 m/S 710 mmHg 21%
    08:00 +29°C° 0 mm 2 m/S 710 mmHg 20%
    09:00 +30°C° 0 mm 2 m/S 710 mmHg 18%
    10:00 +33°C° 0 mm 3 m/S 710 mmHg 16%
    11:00 +35°C° 0 mm 3 m/S 710 mmHg 14%
    12:00 +36°C° 0 mm 3 m/S 709 mmHg 13%
    13:00 +37°C° 0 mm 4 m/S 708 mmHg 12%
    14:00 +38°C° 0 mm 4 m/S 707 mmHg 11%
    15:00 +38°C° 0 mm 4 m/S 707 mmHg 10%
    16:00 +38°C° 0 mm 4 m/S 707 mmHg 10%
    17:00 +38°C° 0 mm 4 m/S 706 mmHg 10%
    18:00 +36°C° 0 mm 4 m/S 707 mmHg 12%
    19:00 +34°C° 0 mm 3 m/S 708 mmHg 13%
    20:00 +33°C° 0 mm 3 m/S 709 mmHg 14%
    21:00 +32°C° 0,1 mm 4 m/S 710 mmHg 17%
    22:00 +30°C° 0,1 mm 4 m/S 711 mmHg 20%
    23:00 +29°C° 0,1 mm 5 m/S 712 mmHg 22%

    21 November, Dienstag

    Zeit Temperatur Niederschläge Wind Luftdruck Luftfeuchtigkeit
    00:00 +27°C° 0,1 mm 5 m/S 713 mmHg 33%
    01:00 +26°C° 0,1 mm 6 m/S 713 mmHg 45%
    02:00 +23°C° 0,1 mm 6 m/S 714 mmHg 56%
    03:00 +22°C° 0 mm 5 m/S 715 mmHg 58%
    04:00 +22°C° 0 mm 4 m/S 715 mmHg 60%
    05:00 +22°C° 0 mm 3 m/S 716 mmHg 62%
    06:00 +22°C° 0 mm 3 m/S 716 mmHg 61%
    07:00 +22°C° 0 mm 3 m/S 716 mmHg 60%
    08:00 +22°C° 0 mm 3 m/S 717 mmHg 59%
    09:00 +24°C° 0 mm 3 m/S 716 mmHg 55%
    10:00 +26°C° 0 mm 4 m/S 716 mmHg 51%
    11:00 +27°C° 0 mm 4 m/S 716 mmHg 46%
    12:00 +28°C° 0,2 mm 4 m/S 716 mmHg 44%
    13:00 +28°C° 0,2 mm 5 m/S 715 mmHg 41%
    14:00 +29°C° 0,2 mm 5 m/S 715 mmHg 38%
    15:00 +29°C° 0,1 mm 5 m/S 714 mmHg 37%
    16:00 +29°C° 0,1 mm 5 m/S 714 mmHg 35%
    17:00 +30°C° 0,1 mm 4 m/S 714 mmHg 34%
    18:00 +29°C° 0,1 mm 4 m/S 715 mmHg 36%
    19:00 +28°C° 0,1 mm 4 m/S 715 mmHg 37%
    20:00 +27°C° 0,1 mm 3 m/S 716 mmHg 39%
    21:00 +26°C° 0 mm 3 m/S 716 mmHg 42%
    22:00 +25°C° 0 mm 2 m/S 717 mmHg 45%
    23:00 +25°C° 0 mm 2 m/S 717 mmHg 48%

    22 November, Mittwoch

    Zeit Temperatur Niederschläge Wind Luftdruck Luftfeuchtigkeit
    00:00 +24°C° 0 mm 2 m/S 717 mmHg 50%
    01:00 +23°C° 0 mm 2 m/S 716 mmHg 53%
    02:00 +23°C° 0 mm 2 m/S 716 mmHg 55%
    03:00 +21°C° 0 mm 2 m/S 715 mmHg 56%
    04:00 +21°C° 0 mm 2 m/S 715 mmHg 57%
    05:00 +20°C° 0 mm 2 m/S 715 mmHg 58%
    06:00 +23°C° 0 mm 2 m/S 715 mmHg 53%
    07:00 +24°C° 0 mm 2 m/S 716 mmHg 48%
    08:00 +26°C° 0 mm 3 m/S 716 mmHg 43%
    09:00 +27°C° 0 mm 3 m/S 715 mmHg 37%
    10:00 +29°C° 0 mm 3 m/S 715 mmHg 31%
    11:00 +31°C° 0 mm 3 m/S 714 mmHg 25%
    12:00 +33°C° 0 mm 4 m/S 713 mmHg 22%
    13:00 +34°C° 0 mm 4 m/S 712 mmHg 20%
    14:00 +35°C° 0 mm 4 m/S 712 mmHg 17%
    15:00 +35°C° 0 mm 5 m/S 711 mmHg 17%
    16:00 +35°C° 0 mm 5 m/S 711 mmHg 17%
    17:00 +35°C° 0 mm 5 m/S 710 mmHg 17%
    18:00 +34°C° 0 mm 5 m/S 710 mmHg 20%
    19:00 +32°C° 0 mm 4 m/S 711 mmHg 24%
    20:00 +30°C° 0 mm 4 m/S 711 mmHg 27%
    21:00 +29°C° 0 mm 3 m/S 712 mmHg 31%
    22:00 +28°C° 0 mm 3 m/S 712 mmHg 34%
    23:00 +27°C° 0 mm 2 m/S 712 mmHg 37%
    Mehr zeigen